Location: Gwatt
(46.7204°N, 7.6223°E)
Time: 07:52:40
(UTC+00:00)

S-56A Canister/Altair - Pass Details

Date: 30 January 2021
Orbit: 632 x 2501 km, 38.9° (Epoch: 08 March)

Event Time Altitude Azimuth Distance (km) Brightness Sun altitude
Rises 03:54:40 0° 263° (W) 2,953 - -31.1°
Reaches altitude 10° 03:57:23 10° 248° (WSW) 2,006 - -30.7°
Maximum altitude 04:00:48 22° 197° (SSW) 1,410 - -30.1°
Exits shadow 04:03:04 16° 159° (SSE) 1,754 9.5 -29.7°
Drops below altitude 10° 04:04:28 10° 146° (SE) 2,170 10.1 -29.5°
Sets 04:07:33 0° 131° (SE) 3,270 11.4 -28.9°
